| time (UTC) | temp F | wind direction | speed MPH | gust MPH | rain 1hr in | rain 24hr in | rain mn in | humidity % | barometer mb |
| 20260904052539 | 68 | 343 | 3.0 | 10.0 | 0.00 | 0.00 | 0.00 | 89 | 1010.2 |
| 20260904052040 | 68 | 30 | 4.0 | 8.0 | 0.00 | 0.00 | 0.00 | 89 | 1010.0 |
| 20260904051538 | 68 | 21 | 3.0 | 10.0 | 0.00 | 0.00 | 0.00 | 89 | 1009.8 |
| 20260904051037 | 68 | 360 | 4.0 | 10.0 | 0.00 | 0.00 | 0.00 | 89 | 1009.6 |
| 20260904050535 | 68 | 71 | 3.0 | 8.0 | 0.00 | 0.00 | 0.00 | 89 | 1009.4 |
| 20260904050034 | 68 | 14 | 3.0 | 11.0 | 0.00 | 0.00 | 0.00 | 89 | 1009.4 |
| 20260904045534 | 68 | 24 | 4.0 | 12.0 | 0.00 | 0.00 | 0.00 | 89 | 1009.6 |
| 20260904045034 | 68 | 32 | 5.0 | 12.0 | 0.00 | 0.00 | 0.00 | 89 | 1009.5 |
| 20260904044537 | 68 | 24 | 4.0 | 15.0 | 0.00 | 0.00 | 0.00 | 89 | 1009.4 |
| 20260904044034 | 68 | 85 | 6.0 | 15.0 | 0.00 | 0.00 | 0.00 | 90 | 1009.4 |
| 20260904043533 | 68 | 344 | 5.0 | 12.0 | 0.00 | 0.00 | 0.00 | 90 | 1009.4 |
| 20260904043040 | 68 | 34 | 7.0 | 13.0 | 0.00 | 0.00 | 0.00 | 90 | 1009.4 |
| 20260904042533 | 68 | 22 | 5.0 | 13.0 | 0.00 | 0.00 | 0.00 | 90 | 1009.4 |
| 20260904042035 | 68 | 30 | 4.0 | 11.0 | 0.00 | 0.00 | 0.00 | 90 | 1009.4 |
| 20260904041532 | 68 | 25 | 5.0 | 10.0 | 0.00 | 0.00 | 0.00 | 90 | 1009.3 |
| 20260904041032 | 68 | 15 | 5.0 | 12.0 | 0.00 | 0.00 | 0.00 | 90 | 1009.3 |
| 20260904040531 | 67 | 355 | 5.0 | 12.0 | 0.00 | 0.00 | 0.00 | 90 | 1009.2 |
| 20260904040031 | 68 | 27 | 4.0 | 12.0 | 0.00 | 0.00 | 0.00 | 90 | 1009.3 |
| 20260904035531 | 68 | 5 | 5.0 | 12.0 | 0.00 | 0.00 | 0.00 | 89 | 1009.2 |
| 20260904035031 | 68 | 346 | 6.0 | 13.0 | 0.00 | 0.00 | 0.00 | 89 | 1009.1 |
| 20260904034530 | 68 | 342 | 6.0 | 14.0 | 0.00 | 0.00 | 0.00 | 89 | 1009.2 |
| 20260904034030 | 68 | 347 | 6.0 | 14.0 | 0.00 | 0.00 | 0.00 | 88 | 1009.2 |
| 20260904033533 | 69 | 5 | 4.0 | 15.0 | 0.00 | 0.00 | 0.00 | 87 | 1008.9 |
| 20260904033032 | 69 | 307 | 9.0 | 15.0 | 0.00 | 0.00 | 0.00 | 87 | 1009.3 |
| 20260904032528 | 69 | 17 | 4.0 | 10.0 | 0.00 | 0.00 | 0.00 | 86 | 1008.5 |
| 20260904032029 | 70 | 22 | 4.0 | 10.0 | 0.00 | 0.00 | 0.00 | 86 | 1008.2 |
| 20260904031529 | 70 | 338 | 4.0 | 10.0 | 0.00 | 0.00 | 0.00 | 85 | 1008.4 |
| 20260904031029 | 70 | 324 | 4.0 | 9.0 | 0.00 | 0.00 | 0.00 | 85 | 1008.3 |
| 20260904030531 | 71 | 36 | 3.0 | 8.0 | 0.00 | 0.00 | 0.00 | 84 | 1008.3 |
| 20260904030035 | 71 | 48 | 1.0 | 8.0 | 0.00 | 0.00 | 0.00 | 84 | 1008.4 |
| 20260904025527 | 71 | 339 | 1.0 | 8.0 | 0.00 | 0.00 | 0.00 | 84 | 1008.2 |
| 20260904025027 | 72 | 295 | 3.0 | 8.0 | 0.00 | 0.00 | 0.00 | 83 | 1008.1 |
| 20260904024527 | 72 | 312 | 2.0 | 8.0 | 0.00 | 0.00 | 0.00 | 84 | 1008.0 |
| 20260904024029 | 72 | 328 | 1.0 | 8.0 | 0.00 | 0.00 | 0.00 | 83 | 1008.0 |
| 20260904023530 | 72 | 328 | 2.0 | 9.0 | 0.00 | 0.00 | 0.00 | 83 | 1008.0 |
| 20260904023026 | 72 | 326 | 3.0 | 9.0 | 0.00 | 0.00 | 0.00 | 83 | 1008.0 |
| 20260904022526 | 72 | 313 | 3.0 | 5.0 | 0.00 | 0.00 | 0.00 | 83 | 1007.9 |
| 20260904022029 | 72 | 52 | 0.0 | 1.0 | 0.00 | 0.00 | 0.00 | 82 | 1007.6 |
| 20260904021530 | 72 | 52 | 0.0 | 2.0 | 0.00 | 0.00 | 0.00 | 82 | 1007.4 |
| 20260904021026 | 72 | 52 | 0.0 | 3.0 | 0.00 | 0.00 | 0.00 | 82 | 1007.4 |
| 20260904020525 | 72 | 51 | 1.0 | 4.0 | 0.00 | 0.00 | 0.00 | 82 | 1007.2 |
| 20260904020025 | 72 | 53 | 1.0 | 4.0 | 0.00 | 0.00 | 0.00 | 82 | 1007.0 |
| 20260904015530 | 72 | 93 | 2.0 | 4.0 | 0.00 | 0.00 | 0.00 | 82 | 1007.0 |
| 20260904015027 | 72 | 103 | 2.0 | 4.0 | 0.00 | 0.00 | 0.00 | 82 | 1007.0 |
| 20260904014525 | 72 | 72 | 2.0 | 4.0 | 0.00 | 0.00 | 0.00 | 82 | 1007.1 |
| 20260904014027 | 73 | 96 | 2.0 | 4.0 | 0.00 | 0.00 | 0.00 | 81 | 1007.1 |
| 20260904013524 | 73 | 102 | 2.0 | 4.0 | 0.00 | 0.00 | 0.00 | 81 | 1007.0 |
| 20260904013024 | 73 | 81 | 2.0 | 6.0 | 0.00 | 0.00 | 0.00 | 80 | 1007.0 |
| 20260904012524 | 73 | 55 | 3.0 | 6.0 | 0.00 | 0.00 | 0.00 | 80 | 1007.1 |
| 20260904012024 | 73 | 53 | 2.0 | 5.0 | 0.00 | 0.00 | 0.00 | 80 | 1007.0 |
| 20260904011525 | 73 | 59 | 1.0 | 5.0 | 0.00 | 0.00 | 0.00 | 80 | 1006.9 |
| 20260904011024 | 73 | 49 | 1.0 | 5.0 | 0.00 | 0.00 | 0.00 | 80 | 1007.0 |
| 20260904010524 | 73 | 49 | 1.0 | 6.0 | 0.00 | 0.00 | 0.00 | 79 | 1007.0 |
| 20260904010023 | 74 | 34 | 3.0 | 7.0 | 0.00 | 0.00 | 0.00 | 79 | 1007.0 |
| 20260904005523 | 74 | 56 | 3.0 | 9.0 | 0.00 | 0.00 | 0.00 | 79 | 1007.0 |
| 20260904005023 | 74 | 86 | 4.0 | 9.0 | 0.00 | 0.00 | 0.00 | 78 | 1007.1 |
| 20260904004527 | 74 | 55 | 4.0 | 11.0 | 0.00 | 0.00 | 0.00 | 78 | 1007.0 |
| 20260904004023 | 74 | 73 | 4.0 | 14.0 | 0.00 | 0.00 | 0.00 | 77 | 1006.9 |
| 20260904003522 | 75 | 51 | 4.0 | 14.0 | 0.00 | 0.00 | 0.00 | 77 | 1006.7 |
| 20260904003024 | 75 | 360 | 6.0 | 12.0 | 0.00 | 0.00 | 0.00 | 76 | 1006.8 |
| 20260904002525 | 75 | 75 | 5.0 | 12.0 | 0.00 | 0.00 | 0.00 | 76 | 1006.7 |
| 20260904002023 | 75 | 86 | 6.0 | 11.0 | 0.00 | 0.00 | 0.00 | 75 | 1006.5 |
| 20260904001523 | 75 | 90 | 4.0 | 14.0 | 0.00 | 0.00 | 0.00 | 75 | 1006.4 |
| 20260904001022 | 75 | 46 | 7.0 | 14.0 | 0.00 | 0.00 | 0.00 | 75 | 1006.4 |
| 20260904000522 | 75 | 63 | 5.0 | 15.0 | 0.00 | 0.00 | 0.00 | 75 | 1006.3 |
| 20260904000022 | 76 | 48 | 7.0 | 15.0 | 0.00 | 0.00 | 0.00 | 74 | 1006.4 |
| 20260903235521 | 76 | 50 | 5.0 | 13.0 | 0.00 | 0.00 | 0.00 | 75 | 1006.4 |
| 20260903235021 | 76 | 74 | 7.0 | 13.0 | 0.00 | 0.00 | 0.00 | 74 | 1006.3 |
| 20260903234521 | 76 | 96 | 5.0 | 14.0 | 0.00 | 0.00 | 0.00 | 73 | 1006.4 |
| 20260903234021 | 77 | 355 | 8.0 | 14.0 | 0.00 | 0.00 | 0.00 | 72 | 1006.6 |
| 20260903233521 | 77 | 43 | 5.0 | 12.0 | 0.00 | 0.00 | 0.00 | 74 | 1006.7 |
| 20260903233032 | 77 | 51 | 3.0 | 11.0 | 0.00 | 0.00 | 0.00 | 75 | 1006.7 |
| 20260903232520 | 76 | 59 | 6.0 | 17.0 | 0.00 | 0.00 | 0.00 | 74 | 1006.6 |
| 20260903232020 | 77 | 22 | 10.0 | 17.0 | 0.00 | 0.00 | 0.00 | 73 | 1006.7 |
| 20260903231535 | 77 | 35 | 6.0 | 13.0 | 0.00 | 0.00 | 0.00 | 72 | 1006.7 |
| 20260903231019 | 77 | 5 | 7.0 | 15.0 | 0.00 | 0.00 | 0.00 | 71 | 1006.4 |
| 20260903230524 | 77 | 48 | 8.0 | 18.0 | 0.00 | 0.00 | 0.00 | 71 | 1006.4 |
| 20260903230020 | 77 | 43 | 7.0 | 18.0 | 0.00 | 0.00 | 0.00 | 70 | 1006.6 |
| 20260903225519 | 78 | 50 | 9.0 | 18.0 | 0.00 | 0.00 | 0.00 | 70 | 1006.7 |
| 20260903225019 | 78 | 45 | 8.0 | 18.0 | 0.00 | 0.00 | 0.00 | 71 | 1006.7 |
| 20260903224519 | 77 | 56 | 4.0 | 11.0 | 0.00 | 0.00 | 0.00 | 72 | 1006.6 |
| 20260903224019 | 77 | 58 | 4.0 | 12.0 | 0.00 | 0.00 | 0.00 | 73 | 1006.8 |
| 20260903223521 | 77 | 360 | 6.0 | 19.0 | 0.00 | 0.00 | 0.00 | 74 | 1006.8 |
| 20260903223018 | 77 | 15 | 6.0 | 19.0 | 0.00 | 0.00 | 0.00 | 74 | 1006.9 |
| 20260903222519 | 77 | 30 | 9.0 | 17.0 | 0.00 | 0.00 | 0.00 | 73 | 1006.9 |
| 20260903222018 | 77 | 34 | 6.0 | 15.0 | 0.00 | 0.00 | 0.00 | 73 | 1006.7 |
| 20260903221518 | 77 | 44 | 7.0 | 17.0 | 0.00 | 0.00 | 0.00 | 73 | 1006.7 |
| 20260903221022 | 77 | 93 | 9.0 | 17.0 | 0.00 | 0.00 | 0.00 | 73 | 1006.7 |
| 20260903220518 | 77 | 46 | 7.0 | 17.0 | 0.00 | 0.00 | 0.00 | 74 | 1006.7 |
| 20260903220019 | 76 | 22 | 8.0 | 17.0 | 0.00 | 0.00 | 0.00 | 74 | 1006.7 |
| 20260903215517 | 76 | 331 | 8.0 | 16.0 | 0.00 | 0.00 | 0.00 | 74 | 1006.7 |
| 20260903215017 | 75 | 19 | 7.0 | 17.0 | 0.00 | 0.00 | 0.00 | 76 | 1006.8 |
| 20260903214516 | 75 | 34 | 9.0 | 17.0 | 0.00 | 0.00 | 0.00 | 77 | 1006.7 |
| 20260903214017 | 74 | 68 | 8.0 | 17.0 | 0.00 | 0.00 | 0.00 | 78 | 1006.7 |
| 20260903213517 | 74 | 68 | 8.0 | 15.0 | 0.00 | 0.00 | 0.00 | 79 | 1006.7 |
| 20260903213016 | 74 | 55 | 6.0 | 15.0 | 0.00 | 0.00 | 0.00 | 80 | 1006.8 |
| 20260903212516 | 73 | 21 | 6.0 | 18.0 | 0.00 | 0.00 | 0.00 | 82 | 1006.8 |
| 20260903212017 | 72 | 37 | 9.0 | 19.0 | 0.00 | 0.00 | 0.00 | 83 | 1006.7 |
| 20260903211516 | 72 | 60 | 11.0 | 19.0 | 0.00 | 0.00 | 0.00 | 84 | 1006.8 |
| 20260903211015 | 71 | 330 | 9.0 | 18.0 | 0.00 | 0.00 | 0.00 | 85 | 1006.9 |
| 20260903210515 | 71 | 350 | 8.0 | 20.0 | 0.00 | 0.00 | 0.00 | 87 | 1006.8 |
| 20260903210015 | 70 | 42 | 10.0 | 20.0 | 0.00 | 0.00 | 0.00 | 87 | 1006.8 |
| 20260903205514 | 70 | 115 | 8.0 | 24.0 | 0.00 | 0.00 | 0.00 | 87 | 1006.5 |
| 20260903205014 | 70 | 14 | 10.0 | 24.0 | 0.00 | 0.00 | 0.00 | 87 | 1006.5 |
| 20260903204513 | 70 | 51 | 10.0 | 29.0 | 0.00 | 0.00 | 0.00 | 85 | 1006.8 |
| 20260903204013 | 71 | 33 | 17.0 | 29.0 | 0.00 | 0.00 | 0.00 | 81 | 1006.9 |
| 20260903203511 | 73 | 46 | 10.0 | 25.0 | 0.00 | 0.00 | 0.00 | 78 | 1006.9 |
| 20260903203012 | 73 | 43 | 14.0 | 25.0 | 0.00 | 0.00 | 0.00 | 75 | 1007.0 |
| 20260903202511 | 74 | 301 | 8.0 | 22.0 | 0.00 | 0.00 | 0.00 | 75 | 1007.2 |
| 20260903202011 | 74 | 15 | 9.0 | 25.0 | 0.00 | 0.00 | 0.00 | 75 | 1007.0 |
| 20260903201511 | 76 | 335 | 9.0 | 25.0 | 0.00 | 0.00 | 0.00 | 72 | 1006.8 |
| 20260903201009 | 76 | 344 | 7.0 | 15.0 | 0.00 | 0.00 | 0.00 | 74 | 1006.8 |
| 20260903200509 | 75 | 16 | 8.0 | 30.0 | 0.00 | 0.00 | 0.00 | 71 | 1006.7 |
| 20260903200118 | 79 | 347 | 12.0 | 30.0 | 0.00 | 0.00 | 0.00 | 63 | 1006.7 |
| 20260903195508 | 88 | 333 | 3.0 | 8.0 | 0.00 | 0.00 | 0.00 | 61 | 1006.3 |
| 20260903195008 | 88 | 34 | 1.0 | 11.0 | 0.00 | 0.00 | 0.00 | 61 | 1005.7 |
| 20260903194508 | 88 | 30 | 4.0 | 16.0 | 0.00 | 0.00 | 0.00 | 60 | 1005.6 |
| 20260903194007 | 89 | 75 | 4.0 | 16.0 | 0.00 | 0.00 | 0.00 | 60 | 1005.4 |
| 20260903193508 | 89 | 138 | 4.0 | 14.0 | 0.00 | 0.00 | 0.00 | 59 | 1005.1 |
| 20260903193012 | 89 | 86 | 6.0 | 14.0 | 0.00 | 0.00 | 0.00 | 59 | 1004.9 |
| 20260903192508 | 89 | 94 | 4.0 | 14.0 | 0.00 | 0.00 | 0.00 | 60 | 1004.8 |
| 20260903192005 | 88 | 69 | 7.0 | 14.0 | 0.00 | 0.00 | 0.00 | 61 | 1004.8 |
| 20260903191517 | 88 | 105 | 4.0 | 12.0 | 0.00 | 0.00 | 0.00 | 61 | 1004.9 |
| 20260903191005 | 88 | 158 | 5.0 | 14.0 | 0.00 | 0.00 | 0.00 | 61 | 1005.0 |
| 20260903190505 | 88 | 79 | 6.0 | 14.0 | 0.00 | 0.00 | 0.00 | 61 | 1004.9 |
| 20260903190005 | 88 | 144 | 6.0 | 15.0 | 0.00 | 0.00 | 0.00 | 61 | 1004.9 |
| 20260903185504 | 88 | 86 | 8.0 | 15.0 | 0.00 | 0.00 | 0.00 | 61 | 1005.0 |
| 20260903185002 | 88 | 68 | 7.0 | 14.0 | 0.00 | 0.00 | 0.00 | 62 | 1005.0 |
| 20260903184501 | 87 | 117 | 7.0 | 13.0 | 0.00 | 0.00 | 0.00 | 62 | 1005.1 |
| 20260903184102 | 87 | 116 | 6.0 | 12.0 | 0.00 | 0.00 | 0.00 | 63 | 1005.2 |
| 20260903183559 | 87 | 72 | 5.0 | 15.0 | 0.00 | 0.00 | 0.00 | 63 | 1005.3 |
| 20260903183102 | 87 | 157 | 6.0 | 15.0 | 0.00 | 0.00 | 0.00 | 63 | 1005.4 |
| 20260903182558 | 87 | 125 | 5.0 | 15.0 | 0.00 | 0.00 | 0.00 | 64 | 1005.4 |
| 20260903182058 | 86 | 125 | 5.0 | 14.0 | 0.00 | 0.00 | 0.00 | 65 | 1005.5 |
| 20260903181556 | 86 | 5 | 7.0 | 14.0 | 0.00 | 0.00 | 0.00 | 65 | 1005.8 |
| 20260903181054 | 85 | 94 | 5.0 | 12.0 | 0.00 | 0.00 | 0.00 | 67 | 1005.8 |
| 20260903180556 | 85 | 43 | 6.0 | 17.0 | 0.00 | 0.00 | 0.00 | 67 | 1005.9 |
| 20260903180054 | 84 | 122 | 6.0 | 17.0 | 0.00 | 0.00 | 0.00 | 67 | 1006.1 |
| 20260903175554 | 85 | 54 | 7.0 | 14.0 | 0.00 | 0.00 | 0.00 | 67 | 1006.2 |
| 20260903175053 | 85 | 75 | 6.0 | 16.0 | 0.00 | 0.00 | 0.00 | 67 | 1006.1 |
| 20260903174553 | 85 | 101 | 7.0 | 16.0 | 0.00 | 0.00 | 0.00 | 67 | 1006.1 |
| 20260903174052 | 85 | 144 | 9.0 | 15.0 | 0.00 | 0.00 | 0.00 | 66 | 1006.1 |
| 20260903173552 | 85 | 142 | 6.0 | 14.0 | 0.00 | 0.00 | 0.00 | 66 | 1006.0 |
| 20260903173052 | 85 | 131 | 7.0 | 17.0 | 0.00 | 0.00 | 0.00 | 66 | 1006.0 |
| 20260903172552 | 85 | 109 | 9.0 | 17.0 | 0.00 | 0.00 | 0.00 | 66 | 1006.0 |
| 20260903172050 | 85 | 130 | 8.0 | 17.0 | 0.00 | 0.00 | 0.00 | 66 | 1006.0 |
| 20260903171604 | 84 | 168 | 8.0 | 18.0 | 0.00 | 0.00 | 0.00 | 67 | 1006.1 |
| 20260903171047 | 84 | 155 | 8.0 | 18.0 | 0.00 | 0.00 | 0.00 | 69 | 1006.1 |
| 20260903170546 | 84 | 171 | 7.0 | 13.0 | 0.00 | 0.00 | 0.00 | 69 | 1006.2 |
| 20260903170051 | 83 | 161 | 5.0 | 14.0 | 0.00 | 0.00 | 0.00 | 69 | 1006.4 |
| 20260903165544 | 83 | 161 | 5.0 | 14.0 | 0.00 | 0.00 | 0.00 | 70 | 1006.5 |
| 20260903165044 | 82 | 52 | 4.0 | 13.0 | 0.00 | 0.00 | 0.00 | 71 | 1006.5 |
| 20260903164541 | 82 | 116 | 6.0 | 13.0 | 0.00 | 0.00 | 0.00 | 71 | 1006.5 |
| 20260903164041 | 81 | 47 | 7.0 | 15.0 | 0.00 | 0.00 | 0.00 | 71 | 1006.6 |
| 20260903163540 | 81 | 123 | 7.0 | 18.0 | 0.00 | 0.00 | 0.00 | 72 | 1006.7 |
| 20260903163043 | 82 | 90 | 8.0 | 18.0 | 0.00 | 0.00 | 0.00 | 71 | 1006.7 |
| 20260903162539 | 82 | 98 | 9.0 | 17.0 | 0.00 | 0.00 | 0.00 | 71 | 1006.6 |
| 20260903162038 | 81 | 123 | 7.0 | 15.0 | 0.00 | 0.00 | 0.00 | 72 | 1006.5 |
| 20260903161537 | 80 | 110 | 8.0 | 14.0 | 0.00 | 0.00 | 0.00 | 74 | 1006.4 |
| 20260903161034 | 79 | 58 | 8.0 | 12.0 | 0.00 | 0.00 | 0.00 | 75 | 1006.7 |
| 20260903160534 | 79 | 112 | 5.0 | 11.0 | 0.00 | 0.00 | 0.00 | 74 | 1007.1 |
| 20260903160033 | 79 | 108 | 5.0 | 10.0 | 0.00 | 0.00 | 0.00 | 74 | 1007.1 |
| 20260903155536 | 79 | 142 | 3.0 | 9.0 | 0.00 | 0.00 | 0.00 | 73 | 1007.5 |
| 20260903155038 | 80 | 131 | 4.0 | 11.0 | 0.00 | 0.00 | 0.00 | 72 | 1007.6 |
| 20260903154533 | 80 | 96 | 5.0 | 11.0 | 0.00 | 0.00 | 0.00 | 72 | 1007.5 |
| 20260903154033 | 80 | 83 | 6.0 | 11.0 | 0.00 | 0.00 | 0.00 | 72 | 1007.6 |
| 20260903153529 | 79 | 92 | 4.0 | 13.0 | 0.00 | 0.00 | 0.00 | 73 | 1007.3 |
| 20260903153029 | 79 | 84 | 6.0 | 14.0 | 0.00 | 0.00 | 0.00 | 72 | 1007.2 |
| 20260903152527 | 79 | 97 | 8.0 | 14.0 | 0.00 | 0.00 | 0.00 | 73 | 1007.2 |
| 20260903152026 | 78 | 134 | 5.0 | 12.0 | 0.00 | 0.00 | 0.00 | 73 | 1007.3 |
| 20260903151525 | 77 | 83 | 6.0 | 14.0 | 0.00 | 0.00 | 0.00 | 73 | 1007.5 |
| 20260903151023 | 77 | 131 | 6.0 | 14.0 | 0.00 | 0.00 | 0.00 | 74 | 1007.4 |
| 20260903150522 | 76 | 91 | 7.0 | 14.0 | 0.00 | 0.00 | 0.00 | 75 | 1007.2 |
| 20260903150034 | 76 | 101 | 8.0 | 14.0 | 0.00 | 0.00 | 0.00 | 74 | 1007.3 |
| 20260903145520 | 76 | 103 | 5.0 | 12.0 | 0.00 | 0.00 | 0.00 | 74 | 1007.3 |
| 20260903145018 | 76 | 143 | 5.0 | 12.0 | 0.00 | 0.00 | 0.00 | 74 | 1007.5 |
| 20260903144517 | 76 | 114 | 4.0 | 12.0 | 0.00 | 0.00 | 0.00 | 74 | 1007.6 |
| 20260903144017 | 75 | 95 | 5.0 | 13.0 | 0.00 | 0.00 | 0.00 | 75 | 1007.7 |
| 20260903143514 | 75 | 101 | 6.0 | 13.0 | 0.00 | 0.00 | 0.00 | 75 | 1007.8 |
| 20260903143013 | 74 | 76 | 5.0 | 13.0 | 0.00 | 0.00 | 0.00 | 75 | 1007.8 |
| 20260903142512 | 74 | 69 | 5.0 | 14.0 | 0.00 | 0.00 | 0.00 | 75 | 1008.0 |
| 20260903142010 | 74 | 66 | 8.0 | 14.0 | 0.00 | 0.00 | 0.00 | 75 | 1007.9 |
| 20260903141511 | 74 | 19 | 6.0 | 13.0 | 0.00 | 0.00 | 0.00 | 75 | 1007.9 |
| 20260903141010 | 73 | 47 | 8.0 | 13.0 | 0.00 | 0.00 | 0.00 | 76 | 1008.0 |
| 20260903140507 | 73 | 68 | 5.0 | 13.0 | 0.00 | 0.00 | 0.00 | 76 | 1008.1 |
| 20260903140004 | 73 | 82 | 5.0 | 12.0 | 0.00 | 0.00 | 0.00 | 76 | 1008.1 |
| 20260903135507 | 73 | 108 | 7.0 | 12.0 | 0.00 | 0.00 | 0.00 | 76 | 1008.2 |
| 20260903135003 | 72 | 64 | 6.0 | 12.0 | 0.00 | 0.00 | 0.00 | 76 | 1008.2 |
| 20260903134502 | 72 | 100 | 7.0 | 12.0 | 0.00 | 0.00 | 0.00 | 76 | 1008.3 |
| 20260903134004 | 72 | 105 | 5.0 | 11.0 | 0.00 | 0.00 | 0.00 | 77 | 1008.5 |
| 20260903133604 | 72 | 72 | 4.0 | 10.0 | 0.00 | 0.00 | 0.00 | 77 | 1008.6 |
| 20260903133103 | 71 | 97 | 6.0 | 10.0 | 0.00 | 0.00 | 0.00 | 77 | 1008.6 |
| 20260903132558 | 71 | 65 | 4.0 | 9.0 | 0.00 | 0.00 | 0.00 | 77 | 1008.6 |
| 20260903132058 | 71 | 64 | 4.0 | 8.0 | 0.00 | 0.00 | 0.00 | 78 | 1008.5 |
| 20260903131607 | 71 | 100 | 3.0 | 9.0 | 0.00 | 0.00 | 0.00 | 78 | 1008.5 |
| 20260903131059 | 70 | 84 | 4.0 | 9.0 | 0.00 | 0.00 | 0.00 | 78 | 1008.4 |
| 20260903130555 | 70 | 86 | 5.0 | 10.0 | 0.00 | 0.00 | 0.00 | 78 | 1008.6 |
| 20260903130056 | 70 | 78 | 5.0 | 10.0 | 0.00 | 0.00 | 0.00 | 78 | 1008.6 |
| 20260903125555 | 70 | 80 | 5.0 | 7.0 | 0.00 | 0.00 | 0.00 | 77 | 1008.6 |
| 20260903125055 | 70 | 67 | 2.0 | 7.0 | 0.00 | 0.00 | 0.00 | 77 | 1008.6 |
| 20260903124606 | 70 | 32 | 3.0 | 10.0 | 0.00 | 0.00 | 0.00 | 78 | 1008.6 |
| 20260903124053 | 70 | 92 | 4.0 | 11.0 | 0.00 | 0.00 | 0.00 | 78 | 1008.5 |
| 20260903123551 | 69 | 96 | 5.0 | 11.0 | 0.00 | 0.00 | 0.00 | 78 | 1008.4 |
| 20260903123050 | 69 | 165 | 6.0 | 10.0 | 0.00 | 0.00 | 0.00 | 79 | 1008.3 |
| 20260903122549 | 69 | 63 | 4.0 | 10.0 | 0.00 | 0.00 | 0.00 | 79 | 1008.4 |
| 20260903122048 | 69 | 116 | 4.0 | 9.0 | 0.00 | 0.00 | 0.00 | 79 | 1008.5 |
| 20260903121547 | 69 | 73 | 4.0 | 10.0 | 0.00 | 0.00 | 0.00 | 79 | 1008.3 |
| 20260903121046 | 68 | 26 | 4.0 | 10.0 | 0.00 | 0.00 | 0.00 | 79 | 1008.5 |
| 20260903120545 | 68 | 75 | 4.0 | 9.0 | 0.00 | 0.00 | 0.00 | 79 | 1008.5 |
| 20260903120055 | 68 | 86 | 5.0 | 9.0 | 0.00 | 0.00 | 0.00 | 78 | 1008.4 |
| 20260903115543 | 69 | 98 | 5.0 | 9.0 | 0.00 | 0.00 | 0.00 | 78 | 1008.4 |
| 20260903115043 | 69 | 95 | 4.0 | 8.0 | 0.00 | 0.00 | 0.00 | 78 | 1008.6 |
| 20260903114543 | 69 | 96 | 2.0 | 8.0 | 0.00 | 0.00 | 0.00 | 78 | 1008.6 |
| 20260903114042 | 69 | 92 | 4.0 | 8.0 | 0.00 | 0.00 | 0.00 | 78 | 1008.7 |
| 20260903113545 | 69 | 102 | 4.0 | 8.0 | 0.00 | 0.00 | 0.00 | 77 | 1008.7 |
| 20260903113047 | 69 | 98 | 4.0 | 9.0 | 0.00 | 0.00 | 0.00 | 77 | 1008.8 |
| 20260903112543 | 69 | 126 | 3.0 | 8.0 | 0.00 | 0.00 | 0.00 | 77 | 1008.8 |
| 20260903112041 | 69 | 92 | 3.0 | 8.0 | 0.00 | 0.00 | 0.00 | 77 | 1008.8 |
| 20260903111540 | 69 | 111 | 5.0 | 8.0 | 0.00 | 0.00 | 0.00 | 77 | 1008.9 |
| 20260903111039 | 69 | 56 | 3.0 | 7.0 | 0.00 | 0.00 | 0.00 | 77 | 1009.0 |
| 20260903110538 | 69 | 97 | 3.0 | 7.0 | 0.00 | 0.00 | 0.00 | 77 | 1009.2 |
| 20260903110038 | 69 | 98 | 3.0 | 7.0 | 0.00 | 0.00 | 0.00 | 77 | 1009.2 |
| 20260903105541 | 68 | 96 | 3.0 | 6.0 | 0.00 | 0.00 | 0.00 | 77 | 1009.2 |
| 20260903105039 | 68 | 94 | 2.0 | 5.0 | 0.00 | 0.00 | 0.00 | 77 | 1009.1 |
| 20260903104539 | 68 | 79 | 2.0 | 6.0 | 0.00 | 0.00 | 0.00 | 77 | 1009.1 |
| 20260903104037 | 68 | 50 | 2.0 | 6.0 | 0.00 | 0.00 | 0.00 | 77 | 1009.0 |
| 20260903103537 | 68 | 74 | 3.0 | 6.0 | 0.00 | 0.00 | 0.00 | 78 | 1009.1 |
| 20260903103036 | 68 | 78 | 2.0 | 6.0 | 0.00 | 0.00 | 0.00 | 78 | 1009.2 |
| 20260903102536 | 68 | 63 | 3.0 | 6.0 | 0.00 | 0.00 | 0.00 | 78 | 1009.2 |
| 20260903102035 | 68 | 51 | 3.0 | 6.0 | 0.00 | 0.00 | 0.00 | 78 | 1009.3 |
| 20260903101544 | 67 | 92 | 2.0 | 6.0 | 0.00 | 0.00 | 0.00 | 78 | 1009.4 |
| 20260903101035 | 67 | 79 | 1.0 | 4.0 | 0.00 | 0.00 | 0.00 | 78 | 1009.4 |
| 20260903100535 | 67 | 81 | 2.0 | 5.0 | 0.00 | 0.00 | 0.00 | 78 | 1009.3 |
| 20260903100036 | 67 | 71 | 2.0 | 5.0 | 0.00 | 0.00 | 0.00 | 78 | 1009.2 |
| 20260903095534 | 67 | 82 | 2.0 | 4.0 | 0.00 | 0.00 | 0.00 | 78 | 1009.3 |
| 20260903095033 | 67 | 68 | 2.0 | 5.0 | 0.00 | 0.00 | 0.00 | 78 | 1009.3 |
| 20260903094533 | 67 | 60 | 2.0 | 5.0 | 0.00 | 0.00 | 0.00 | 78 | 1009.4 |
| 20260903094034 | 67 | 66 | 2.0 | 4.0 | 0.00 | 0.00 | 0.00 | 78 | 1009.5 |
| 20260903093532 | 67 | 57 | 1.0 | 4.0 | 0.00 | 0.00 | 0.00 | 78 | 1009.6 |
| 20260903093040 | 67 | 56 | 1.0 | 4.0 | 0.00 | 0.00 | 0.00 | 78 | 1009.7 |
| 20260903092531 | 67 | 58 | 1.0 | 4.0 | 0.00 | 0.00 | 0.00 | 78 | 1009.7 |
| 20260903092031 | 67 | 59 | 2.0 | 5.0 | 0.00 | 0.00 | 0.00 | 78 | 1009.7 |
| 20260903091530 | 67 | 53 | 1.0 | 3.0 | 0.00 | 0.00 | 0.00 | 78 | 1009.7 |
| 20260903091036 | 67 | 51 | 0.0 | 3.0 | 0.00 | 0.00 | 0.00 | 79 | 1009.7 |
| 20260903090531 | 67 | 51 | 1.0 | 3.0 | 0.00 | 0.00 | 0.00 | 78 | 1009.7 |
| 20260903090033 | 66 | 42 | 0.0 | 4.0 | 0.00 | 0.00 | 0.00 | 79 | 1009.8 |
| 20260903085529 | 66 | 63 | 2.0 | 4.0 | 0.00 | 0.00 | 0.00 | 79 | 1009.7 |
| 20260903085029 | 66 | 76 | 2.0 | 4.0 | 0.00 | 0.00 | 0.00 | 79 | 1009.7 |
| 20260903084533 | 67 | 107 | 2.0 | 4.0 | 0.00 | 0.00 | 0.00 | 79 | 1009.7 |
| 20260903084028 | 67 | 65 | 2.0 | 4.0 | 0.00 | 0.00 | 0.00 | 79 | 1009.8 |
| 20260903083528 | 67 | 80 | 2.0 | 4.0 | 0.00 | 0.00 | 0.00 | 79 | 1010.0 |
| 20260903083028 | 67 | 80 | 2.0 | 4.0 | 0.00 | 0.00 | 0.00 | 79 | 1009.9 |
| 20260903082526 | 67 | 69 | 2.0 | 4.0 | 0.00 | 0.00 | 0.00 | 79 | 1010.0 |
| 20260903082026 | 67 | 64 | 2.0 | 5.0 | 0.00 | 0.00 | 0.00 | 79 | 1010.1 |
| 20260903081526 | 67 | 55 | 2.0 | 5.0 | 0.00 | 0.00 | 0.00 | 79 | 1010.0 |
| 20260903081024 | 67 | 71 | 2.0 | 6.0 | 0.00 | 0.00 | 0.00 | 79 | 1010.1 |
| 20260903080524 | 66 | 96 | 3.0 | 4.0 | 0.00 | 0.00 | 0.00 | 80 | 1010.2 |
| 20260903080037 | 67 | 71 | 1.0 | 3.0 | 0.00 | 0.00 | 0.00 | 79 | 1010.3 |
| 20260903075522 | 67 | 64 | 1.0 | 3.0 | 0.00 | 0.00 | 0.00 | 79 | 1010.4 |
| 20260903075022 | 67 | 63 | 1.0 | 3.0 | 0.00 | 0.00 | 0.00 | 79 | 1010.5 |
| 20260903074521 | 67 | 64 | 1.0 | 4.0 | 0.00 | 0.00 | 0.00 | 79 | 1010.5 |
| 20260903074021 | 67 | 63 | 1.0 | 6.0 | 0.00 | 0.00 | 0.00 | 79 | 1010.5 |
| 20260903073520 | 67 | 103 | 2.0 | 6.0 | 0.00 | 0.00 | 0.00 | 79 | 1010.5 |
| 20260903073024 | 67 | 63 | 2.0 | 4.0 | 0.00 | 0.00 | 0.00 | 79 | 1010.5 |
| 20260903072520 | 67 | 57 | 2.0 | 6.0 | 0.00 | 0.00 | 0.00 | 79 | 1010.4 |
| 20260903072021 | 67 | 95 | 2.0 | 4.0 | 0.00 | 0.00 | 0.00 | 79 | 1010.4 |
| 20260903071520 | 67 | 86 | 2.0 | 5.0 | 0.00 | 0.00 | 0.00 | 79 | 1010.3 |
| 20260903071023 | 67 | 72 | 2.0 | 5.0 | 0.00 | 0.00 | 0.00 | 79 | 1010.5 |
| 20260903070517 | 67 | 81 | 2.0 | 4.0 | 0.00 | 0.00 | 0.00 | 79 | 1010.5 |
| 20260903070019 | 67 | 63 | 1.0 | 4.0 | 0.00 | 0.00 | 0.00 | 79 | 1010.6 |
| 20260903065517 | 67 | 60 | 2.0 | 4.0 | 0.00 | 0.00 | 0.00 | 79 | 1010.7 |
| 20260903065017 | 67 | 96 | 2.0 | 5.0 | 0.00 | 0.00 | 0.00 | 79 | 1010.6 |
| 20260903064517 | 67 | 68 | 3.0 | 5.0 | 0.00 | 0.00 | 0.00 | 79 | 1010.7 |
| 20260903064016 | 67 | 92 | 2.0 | 4.0 | 0.00 | 0.00 | 0.00 | 79 | 1010.7 |
| 20260903063515 | 67 | 77 | 1.0 | 4.0 | 0.00 | 0.00 | 0.00 | 79 | 1010.9 |
| 20260903063015 | 67 | 81 | 2.0 | 4.0 | 0.00 | 0.00 | 0.00 | 79 | 1011.0 |
| 20260903062515 | 67 | 84 | 1.0 | 4.0 | 0.00 | 0.00 | 0.00 | 79 | 1011.1 |
| 20260903062015 | 67 | 86 | 1.0 | 4.0 | 0.00 | 0.00 | 0.00 | 79 | 1011.1 |
| 20260903061516 | 67 | 87 | 2.0 | 4.0 | 0.00 | 0.00 | 0.00 | 79 | 1011.1 |
| 20260903061116 | 67 | 87 | 2.0 | 4.0 | 0.00 | 0.00 | 0.00 | 79 | 1011.2 |
| 20260903060513 | 67 | 72 | 1.0 | 6.0 | 0.00 | 0.00 | 0.00 | 79 | 1011.1 |
| 20260903060012 | 67 | 77 | 1.0 | 6.0 | 0.00 | 0.00 | 0.00 | 78 | 1011.1 |
| 20260903055512 | 67 | 91 | 2.0 | 6.0 | 0.00 | 0.00 | 0.00 | 78 | 1011.0 |
| 20260903055010 | 68 | 58 | 2.0 | 5.0 | 0.00 | 0.00 | 0.00 | 78 | 1011.0 |
| 20260903054512 | 68 | 68 | 3.0 | 6.0 | 0.00 | 0.00 | 0.00 | 77 | 1011.0 |
| 20260903054009 | 68 | 83 | 2.0 | 6.0 | 0.00 | 0.00 | 0.00 | 77 | 1010.9 |
| 20260903053509 | 68 | 88 | 2.0 | 6.0 | 0.00 | 0.00 | 0.00 | 76 | 1010.9 |
| 20260903053007 | 68 | 81 | 3.0 | 6.0 | 0.00 | 0.00 | 0.00 | 76 | 1011.0 |